Regional Weather Roundup
Issued by NWS

Home | Current Version | Previous Version | Text Only | Print | Product List | Glossary Off
Versions: 1 2 3 4 5 6 7 8 9 10 11 12 13 14 15 16 17 18 19 20 21 22 23 24 25 26 27

000
ASUS45 KSLC 212310
RWRUT

UTAH REGIONAL WEATHER ROUNDUP
NATIONAL WEATHER SERVICE SALT LAKE CITY UT
500 PM MDT FRI JUL 21 2017

UTZ001>011-023>025-220000-

NORTHERN UTAH

CITY           SKY/WX    TMP DP  RH WIND       PRES   REMARKS
BRIGHAM CITY   SUNNY     94  27   9 CALM      30.02S
HILL AFB       SUNNY     90  50  25 CALM      30.06F
LOGAN          SUNNY     94  34  12 NW7       30.03F
OGDEN          SUNNY     92  49  22 NW6       30.02F
SALT LAKE CITY MOSUNNY   96  47  18 N15       29.99F HX  92
TOOELE VALLEY  SUNNY     91  54  27 N12       30.02F
WENDOVER       SUNNY     95  38  13 SE8       30.00  HX  90
HEBER CITY     MOSUNNY   90  46  22 N3        30.08F
WEST JORDAN    SUNNY     92  62  36 N13G18    30.04S HX  93

$$

UTZ011>015-024>027-220000-

CENTRAL/NORTHEAST UTAH

CITY           SKY/WX    TMP DP  RH WIND       PRES   REMARKS
PROVO AIRPORT  SUNNY     88  61  40 W6        30.01S
MOAB/CANYONLAN SUNNY     94  48  20 NE7       29.99F HX  90
DELTA          SUNNY     93  41  16 W3        30.01F
PRICE          TSTM      75  59  57 N24G32    30.15R
ROOSEVELT      CLOUDY    77  52  41 W10       30.15F
VERNAL         CLOUDY    85  44  23 VRB6      30.10F

$$

UTZ013>016-019>022-027-220000-

SOUTHERN UTAH

CITY           SKY/WX    TMP DP  RH WIND       PRES   REMARKS
BRYCE CANYON   CLOUDY    68  51  54 SE6       30.31F
CEDAR CITY     MOSUNNY   92  47  21 SW14G22   30.09F
MILFORD        SUNNY     96  46  18 VRB3      30.02F HX  92
ST GEORGE      PTCLDY   101  49  17 W14       29.89F HX  98
HANKSVILLE     PTSUNNY   93  46  20 W8        30.02F
BLANDING       MOSUNNY   82  51  33 CALM      30.21F

$$

REGIONAL REPORTS     COLORADO/ARIZONA

CITY           SKY/WX    TMP DP  RH WIND       PRES   REMARKS
CRAIG, CO      TSTM      63  56  78 NE5       30.27R
GRAND JUNCTION PTSUNNY   83  56  39 SE26G38   30.06R THUNDER
RIFLE, CO      PTSUNNY   89  48  24 VRB5      30.10F
MONTROSE, CO   CLOUDY    67  59  75 SE13      30.20F
CORTEZ, CO     PTSUNNY   71  61  70 MISG      30.19F
COLORADO CITY    N/A     97  45  16 W10       30.09F HX  93
PAGE, AZ       MOSUNNY   88  51  28 NW22G29   30.03R
GRAND CANYON   PTSUNNY   81  52  36 NW13      30.24F
KINGMAN, AZ    MOSUNNY   97  53  22 SW15G22   29.99F HX  94
FLAGSTAFF, AZ  CLOUDY    61  57  87 VRB6      30.30R

$$

REGIONAL REPORTS    NEVADA/IDAHO/WYOMING

CITY           SKY/WX    TMP DP  RH WIND       PRES   REMARKS
LAS VEGAS, NV  MOSUNNY  104  50  16 VRB3      29.83F HX 101
ELY, NY        MOSUNNY   91  38  15 MISG      30.13F
ELKO, NV       MOSUNNY   95  23   7 W9        30.06F
POCATELLO, ID  SUNNY     91  26   9 SW16      30.08F
BURLEY, ID     SUNNY     88  36  15 VRB7      30.05F
FORT BRIDGER,    N/A     80  50  35 S16       30.26F
EVANSTON, WY   MOSUNNY   84  44  24 NW8       30.24S
ROCK SPRINGS,  CLOUDY    81  49  32 S12       30.21F
KEMMERER, WY     N/A     82  30  15 N13       30.26F

$$




USA.gov is the U.S. government's official web portal to all federal, state and local government web resources and services.